Change the Weather History Date:

Friday, March 22, 2013

  Actual Average Record
Temperature  
Mean Temperature 30 °F -  
Max Temperature 42 °F 49 °F 84 °F (2012)
Min Temperature 19 °F 31 °F 17 °F (2002)
Degree Days  
Heating Degree Days 34    
Moisture  
Dew Point 17 °F    
Average Humidity 59    
Maximum Humidity 85    
Minimum Humidity 38    
Precipitation  
Precipitation 0.00 in - - ()
Sea Level Pressure  
Sea Level Pressure 30.03 in    
Wind  
Wind Speed 7 mph (West)    
Max Wind Speed 15 mph    
Max Gust Speed 22 mph    
Visibility 10 miles    
Events      
Averages and records for this station are not official NWS values.
T = Trace of Precipitation, MM = Missing Value Source: NWS Daily Summary

Daily Weather History Graph

Daily Weather History Graph

Search for Another Location

Airport or City:

Trip Planner

Search our weather history database for the weather conditions in past years. The results will help you decide how hot, cold, wet, or windy it might be!

Date:

Astronomy

Mar. 22, 2013 Rise Set
Actual Time 7:32 AM EDT 7:46 PM EDT
Civil Twilight 7:05 AM EDT 8:13 PM EDT
Nautical Twilight 6:33 AM EDT 8:45 PM EDT
Astronomical Twilight 6:00 AM EDT 9:18 PM EDT
Moon 3:12 PM EDT (3/22) 4:31 AM EDT (3/22)
Length of Visible Light 13h 08m
Length of Day
12h 14m
Waxing Gibbous, 77% of the Moon is Illuminated
Mar 22
Waxing Gibbous
Mar 27
Full
Apr 3
Last Quarter
Apr 10
New
Apr 18
First Quarter

Hourly Weather History & Observations

Time (EDT) Temp. Windchill Dew Point Humidity Pressure Visibility Wind Dir Wind Speed Gust Speed Precip Events Conditions
1:53 AM 21.9 °F 13.4 °F 16.0 °F 78% 30.01 in 10.0 mi West 6.9 mph - N/A   Clear
2:53 AM 21.0 °F 13.4 °F 16.0 °F 81% 30.01 in 10.0 mi West 5.8 mph - N/A   Clear
3:53 AM 19.9 °F 11.1 °F 15.1 °F 81% 30.02 in 10.0 mi West 6.9 mph - N/A   Clear
4:53 AM 19.9 °F 13.4 °F 15.1 °F 81% 30.02 in 10.0 mi WNW 4.6 mph - N/A   Clear
5:53 AM 19.9 °F 11.1 °F 16.0 °F 85% 30.03 in 10.0 mi West 6.9 mph - N/A   Clear
7:53 AM 19.0 °F 13.9 °F 15.1 °F 85% 30.05 in 10.0 mi WNW 3.5 mph - N/A   Clear
8:53 AM 25.0 °F 17.1 °F 18.0 °F 75% 30.06 in 10.0 mi WNW 6.9 mph - N/A   Clear
9:53 AM 28.0 °F 18.1 °F 17.1 °F 63% 30.05 in 10.0 mi NW 11.5 mph - N/A   Clear
10:53 AM 30.9 °F 22.2 °F 17.1 °F 57% 30.06 in 10.0 mi WNW 10.4 mph - N/A   Partly Cloudy
11:53 AM 33.1 °F 27.7 °F 17.1 °F 52% 30.06 in 10.0 mi Variable 5.8 mph - N/A   Partly Cloudy
12:53 PM 35.1 °F 27.9 °F 17.1 °F 48% 30.06 in 10.0 mi WNW 9.2 mph - N/A   Clear
1:53 PM 37.0 °F 30.4 °F 17.1 °F 44% 30.04 in 10.0 mi WSW 9.2 mph - N/A   Clear
2:53 PM 39.0 °F 31.8 °F 18.0 °F 43% 30.02 in 10.0 mi West 11.5 mph 18.4 mph N/A   Clear
3:53 PM 39.9 °F 31.8 °F 18.0 °F 41% 30.01 in 10.0 mi NW 15.0 mph 21.9 mph N/A   Partly Cloudy
4:53 PM 41.0 °F 33.9 °F 17.1 °F 38% 29.99 in 10.0 mi West 12.7 mph 18.4 mph N/A   Clear
5:53 PM 42.1 °F 36.1 °F 18.0 °F 38% 30.00 in 10.0 mi West 10.4 mph 16.1 mph N/A   Clear
6:53 PM 39.9 °F 33.9 °F 16.0 °F 38% 30.01 in 10.0 mi West 9.2 mph - N/A   Clear
7:53 PM 35.1 °F 30.1 °F 17.1 °F 48% 30.02 in 10.0 mi West 5.8 mph - N/A   Clear
8:53 PM 36.0 °F - 17.1 °F 46% 30.04 in 10.0 mi Calm Calm - N/A   Clear
9:53 PM 34.0 °F 31.0 °F 18.0 °F 52% 30.05 in 10.0 mi WSW 3.5 mph - N/A   Clear
10:53 PM 30.9 °F - 19.0 °F 61% 30.04 in 10.0 mi Calm Calm - N/A   Clear
11:53 PM 30.0 °F - 19.0 °F 64% 30.04 in 10.0 mi Calm Calm - N/A   Clear